EN

Hourly Weather Dziewa

Today, 20 October, Tuesday

Time Temperature Precipitation Wind Pressure Humidity
00:00 +5°C° 0 mm 2 mps 760 mmHg 89%
01:00 +5°C° 0 mm 2 mps 760 mmHg 90%
02:00 +5°C° 0 mm 2 mps 760 mmHg 91%
03:00 +4°C° 0 mm 2 mps 760 mmHg 91%
04:00 +5°C° 0 mm 1 mps 759 mmHg 91%
05:00 +5°C° 0 mm 2 mps 760 mmHg 91%
06:00 +5°C° 0 mm 2 mps 760 mmHg 91%
07:00 +5°C° 0 mm 2 mps 760 mmHg 90%
08:00 +5°C° 0 mm 3 mps 760 mmHg 85%
09:00 +8°C° 0 mm 3 mps 759 mmHg 80%
10:00 +8°C° 0 mm 4 mps 759 mmHg 75%
11:00 +10°C° 0 mm 4 mps 759 mmHg 70%
12:00 +10°C° 0 mm 5 mps 758 mmHg 65%
13:00 +11°C° 0 mm 6 mps 758 mmHg 60%
14:00 +10°C° 0 mm 5 mps 757 mmHg 63%
15:00 +10°C° 0 mm 5 mps 757 mmHg 66%
16:00 +11°C° 0 mm 4 mps 756 mmHg 70%
17:00 +11°C° 0 mm 4 mps 755 mmHg 70%
18:00 +9°C° 0 mm 5 mps 755 mmHg 70%
19:00 +9°C° 0 mm 5 mps 754 mmHg 71%
20:00 +9°C° 0 mm 5 mps 754 mmHg 71%
21:00 +9°C° 0 mm 5 mps 754 mmHg 71%
22:00 +8°C° 0 mm 5 mps 754 mmHg 72%
23:00 +9°C° 0 mm 5 mps 754 mmHg 72%

Tomorrow, 21 October, Wednesday

Time Temperature Precipitation Wind Pressure Humidity
00:00 +9°C° 0 mm 5 mps 754 mmHg 72%
01:00 +9°C° 0 mm 5 mps 753 mmHg 73%
02:00 +9°C° 0 mm 5 mps 753 mmHg 73%
03:00 +9°C° 0 mm 5 mps 753 mmHg 74%
04:00 +9°C° 0 mm 5 mps 753 mmHg 75%
05:00 +9°C° 0.1 mm 5 mps 753 mmHg 76%
06:00 +10°C° 0.1 mm 4 mps 753 mmHg 77%
07:00 +10°C° 0.1 mm 3 mps 753 mmHg 79%
08:00 +10°C° 0.1 mm 4 mps 753 mmHg 78%
09:00 +10°C° 0.1 mm 4 mps 753 mmHg 78%
10:00 +10°C° 0.1 mm 4 mps 753 mmHg 77%
11:00 +11°C° 0 mm 4 mps 753 mmHg 75%
12:00 +11°C° 0 mm 3 mps 753 mmHg 73%
13:00 +12°C° 0 mm 3 mps 753 mmHg 72%
14:00 +12°C° 0 mm 3 mps 753 mmHg 73%
15:00 +11°C° 0 mm 3 mps 752 mmHg 74%
16:00 +11°C° 0 mm 3 mps 752 mmHg 75%
17:00 +11°C° 0 mm 3 mps 752 mmHg 77%
18:00 +11°C° 0 mm 3 mps 752 mmHg 79%
19:00 +10°C° 0 mm 3 mps 752 mmHg 81%
20:00 +11°C° 0 mm 4 mps 752 mmHg 80%
21:00 +11°C° 0 mm 4 mps 752 mmHg 78%
22:00 +10°C° 0 mm 5 mps 752 mmHg 76%
23:00 +10°C° 0 mm 5 mps 752 mmHg 76%

Day after tomorrow, 22 October, Thursday

Time Temperature Precipitation Wind Pressure Humidity
00:00 +10°C° 0 mm 5 mps 752 mmHg 76%
01:00 +10°C° 0 mm 5 mps 753 mmHg 76%
02:00 +10°C° 0 mm 5 mps 752 mmHg 76%
03:00 +10°C° 0 mm 5 mps 752 mmHg 76%
04:00 +10°C° 0 mm 5 mps 752 mmHg 76%
05:00 +11°C° 0 mm 4 mps 752 mmHg 78%
06:00 +11°C° 0 mm 4 mps 753 mmHg 79%
07:00 +11°C° 0 mm 4 mps 753 mmHg 80%
08:00 +12°C° 0 mm 4 mps 753 mmHg 75%
09:00 +14°C° 0 mm 5 mps 753 mmHg 71%
10:00 +15°C° 0 mm 5 mps 753 mmHg 66%
11:00 +16°C° 0 mm 5 mps 753 mmHg 65%
12:00 +17°C° 0 mm 5 mps 753 mmHg 63%
13:00 +19°C° 0 mm 5 mps 753 mmHg 62%
14:00 +18°C° 0 mm 4 mps 753 mmHg 66%
15:00 +17°C° 0 mm 4 mps 753 mmHg 70%
16:00 +17°C° 0 mm 3 mps 753 mmHg 74%
17:00 +16°C° 0 mm 3 mps 753 mmHg 75%
18:00 +15°C° 0 mm 4 mps 753 mmHg 77%
19:00 +14°C° 0 mm 4 mps 753 mmHg 78%
20:00 +14°C° 0 mm 4 mps 752 mmHg 77%
21:00 +14°C° 0 mm 4 mps 752 mmHg 75%
22:00 +14°C° 0 mm 5 mps 752 mmHg 73%
23:00 +14°C° 0 mm 5 mps 752 mmHg 73%

23 October, Friday

Time Temperature Precipitation Wind Pressure Humidity
00:00 +14°C° 0 mm 5 mps 752 mmHg 72%
01:00 +14°C° 0 mm 5 mps 752 mmHg 72%
02:00 +14°C° 0 mm 4 mps 751 mmHg 73%
03:00 +13°C° 0 mm 4 mps 751 mmHg 75%
04:00 +13°C° 0 mm 4 mps 751 mmHg 77%
05:00 +13°C° 0.2 mm 4 mps 751 mmHg 79%
06:00 +13°C° 0.2 mm 4 mps 750 mmHg 82%
07:00 +13°C° 0.2 mm 4 mps 750 mmHg 85%
08:00 +14°C° 0 mm 5 mps 750 mmHg 82%
09:00 +14°C° 0 mm 5 mps 750 mmHg 79%
10:00 +15°C° 0 mm 6 mps 750 mmHg 76%
11:00 +16°C° 0 mm 6 mps 750 mmHg 73%
12:00 +17°C° 0 mm 6 mps 750 mmHg 71%
13:00 +17°C° 0 mm 6 mps 750 mmHg 68%
14:00 +17°C° 0 mm 6 mps 750 mmHg 69%
15:00 +16°C° 0 mm 5 mps 750 mmHg 70%
16:00 +15°C° 0 mm 4 mps 750 mmHg 71%
17:00 +15°C° 0 mm 4 mps 750 mmHg 74%
18:00 +14°C° 0 mm 3 mps 750 mmHg 77%
19:00 +13°C° 0 mm 3 mps 751 mmHg 80%
20:00 +13°C° 0 mm 3 mps 751 mmHg 82%
21:00 +12°C° 0 mm 3 mps 751 mmHg 83%
22:00 +12°C° 0 mm 3 mps 751 mmHg 84%
23:00 +12°C° 0.1 mm 3 mps 751 mmHg 83%

24 October, Saturday

Time Temperature Precipitation Wind Pressure Humidity
00:00 +12°C° 0.1 mm 4 mps 751 mmHg 82%
01:00 +12°C° 0.1 mm 4 mps 751 mmHg 81%
02:00 +12°C° 0 mm 4 mps 751 mmHg 83%
03:00 +11°C° 0 mm 4 mps 751 mmHg 85%
04:00 +10°C° 0 mm 4 mps 751 mmHg 86%
05:00 +9°C° 0 mm 5 mps 751 mmHg 82%
06:00 +9°C° 0 mm 5 mps 751 mmHg 78%
07:00 +8°C° 0 mm 6 mps 752 mmHg 74%
08:00 +8°C° 0.3 mm 6 mps 752 mmHg 77%
09:00 +9°C° 0.3 mm 6 mps 752 mmHg 81%
10:00 +9°C° 0.3 mm 6 mps 752 mmHg 84%
11:00 +10°C° 0.2 mm 7 mps 752 mmHg 76%
12:00 +11°C° 0.2 mm 8 mps 752 mmHg 69%
13:00 +12°C° 0.2 mm 8 mps 753 mmHg 61%
14:00 +11°C° 0 mm 8 mps 753 mmHg 64%
15:00 +10°C° 0 mm 7 mps 753 mmHg 66%
16:00 +9°C° 0 mm 6 mps 754 mmHg 69%
17:00 +9°C° 0 mm 6 mps 754 mmHg 72%
18:00 +8°C° 0 mm 5 mps 755 mmHg 74%
19:00 +7°C° 0 mm 5 mps 755 mmHg 77%
20:00 +7°C° 0 mm 5 mps 756 mmHg 78%
21:00 +7°C° 0 mm 5 mps 756 mmHg 80%
22:00 +7°C° 0 mm 5 mps 756 mmHg 81%
23:00 +6°C° 0 mm 4 mps 757 mmHg 84%

25 October, Sunday

Time Temperature Precipitation Wind Pressure Humidity
00:00 +6°C° 0 mm 4 mps 757 mmHg 86%
01:00 +5°C° 0 mm 3 mps 757 mmHg 88%
02:00 +5°C° 0 mm 3 mps 757 mmHg 89%
03:00 +6°C° 0 mm 2 mps 757 mmHg 91%
04:00 +5°C° 0 mm 2 mps 757 mmHg 92%
05:00 +5°C° 0 mm 2 mps 757 mmHg 92%
06:00 +5°C° 0 mm 2 mps 758 mmHg 91%
07:00 +5°C° 0 mm 2 mps 758 mmHg 91%
08:00 +6°C° 0 mm 2 mps 758 mmHg 85%
09:00 +8°C° 0 mm 2 mps 758 mmHg 78%
10:00 +9°C° 0 mm 2 mps 758 mmHg 71%
11:00 +10°C° 0 mm 2 mps 758 mmHg 66%
12:00 +12°C° 0 mm 2 mps 758 mmHg 62%
13:00 +13°C° 0 mm 2 mps 757 mmHg 58%
14:00 +12°C° 0 mm 2 mps 757 mmHg 61%
15:00 +12°C° 0 mm 2 mps 757 mmHg 65%
16:00 +10°C° 0 mm 2 mps 756 mmHg 68%
17:00 +9°C° 0 mm 2 mps 756 mmHg 71%
18:00 +8°C° 0 mm 3 mps 756 mmHg 73%
19:00 +8°C° 0 mm 3 mps 756 mmHg 76%
20:00 +7°C° 0 mm 3 mps 756 mmHg 77%
21:00 +7°C° 0 mm 3 mps 756 mmHg 78%
22:00 +7°C° 0 mm 3 mps 756 mmHg 78%
23:00 +6°C° 0 mm 4 mps 756 mmHg 79%

26 October, Monday

Time Temperature Precipitation Wind Pressure Humidity
00:00 +5°C° 0 mm 4 mps 755 mmHg 80%
01:00 +5°C° 0 mm 4 mps 755 mmHg 81%
02:00 +5°C° 0 mm 4 mps 755 mmHg 81%
03:00 +5°C° 0 mm 4 mps 754 mmHg 81%
04:00 +5°C° 0 mm 4 mps 754 mmHg 82%
05:00 +5°C° 0 mm 5 mps 754 mmHg 82%
06:00 +5°C° 0 mm 5 mps 753 mmHg 82%
07:00 +5°C° 0 mm 5 mps 753 mmHg 82%
08:00 +6°C° 0 mm 5 mps 753 mmHg 77%
09:00 +7°C° 0 mm 5 mps 752 mmHg 72%
10:00 +8°C° 0 mm 5 mps 752 mmHg 68%
11:00 +9°C° 0 mm 5 mps 751 mmHg 66%
12:00 +10°C° 0 mm 5 mps 751 mmHg 65%
13:00 +12°C° 0 mm 5 mps 750 mmHg 63%
14:00 +10°C° 0 mm 5 mps 750 mmHg 66%
15:00 +11°C° 0 mm 4 mps 750 mmHg 69%
16:00 +11°C° 0 mm 4 mps 749 mmHg 71%
17:00 +10°C° 0 mm 4 mps 749 mmHg 72%
18:00 +10°C° 0 mm 4 mps 750 mmHg 73%
19:00 +10°C° 0 mm 4 mps 750 mmHg 74%
20:00 +10°C° 0 mm 4 mps 750 mmHg 74%
21:00 +10°C° 0 mm 4 mps 750 mmHg 75%
22:00 +10°C° 0 mm 4 mps 750 mmHg 76%
23:00 +10°C° 0 mm 3 mps 750 mmHg 80%
Show more